Location: Newark
(33.6439°N, 114.9881°W)
Time: 04:16:03
(UTC+00:00)

Transit 2A Rocket - Pass Details

Date: 25 August 2019
Orbit: 593 x 910 km, 66.7° (Epoch: 14 October)

Event Time Altitude Azimuth Distance (km) Brightness Sun altitude
Rises 11:16:23 0° 337° (NNW) 2,943 8.1 -22.5°
Reaches altitude 10° 11:18:45 10° 340° (NNW) 1,996 7.3 -22.1°
Maximum altitude 11:23:10 65° 62° (ENE) 663 4.9 -21.3°
Drops below altitude 10° 11:27:24 10° 145° (SE) 1,917 7.1 -20.5°
Sets 11:29:38 0° 148° (SSE) 2,815 8.0 -20.1°
